| time (UTC) | temp F | wind direction | speed knots | gust knots | rain 1hr in | rain 24hr in | rain mn in | humidity % | barometer mb |
| 20260505010038 | 68 | 251 | 0.0 | 2.6 | 0.00 | 0.01 | 0.00 | 57 | 1008.8 |
| 20260505005538 | 68 | 251 | 0.9 | 2.6 | 0.00 | 0.01 | 0.00 | 56 | 1008.7 |
| 20260505005037 | 68 | 251 | 0.0 | 1.7 | 0.00 | 0.01 | 0.00 | 56 | 1008.7 |
| 20260505004546 | 69 | 251 | 0.0 | 1.7 | 0.00 | 0.01 | 0.00 | 56 | 1008.7 |
| 20260505004038 | 69 | 104 | 0.0 | 1.7 | 0.00 | 0.01 | 0.00 | 55 | 1008.9 |
| 20260505003538 | 69 | 103 | 0.0 | 1.7 | 0.00 | 0.01 | 0.00 | 54 | 1008.8 |
| 20260505003036 | 70 | 103 | 0.0 | 2.6 | 0.00 | 0.01 | 0.00 | 53 | 1008.7 |
| 20260505002536 | 70 | 103 | 0.0 | 5.2 | 0.00 | 0.01 | 0.00 | 53 | 1008.8 |
| 20260505002035 | 70 | 103 | 0.0 | 5.2 | 0.00 | 0.01 | 0.00 | 52 | 1008.9 |
| 20260505001536 | 71 | 206 | 0.0 | 1.7 | 0.00 | 0.01 | 0.00 | 52 | 1008.9 |
| 20260505001035 | 71 | 206 | 0.0 | 2.6 | 0.00 | 0.01 | 0.00 | 52 | 1008.9 |
| 20260505000536 | 71 | 206 | 0.0 | 2.6 | 0.00 | 0.01 | 0.00 | 51 | 1008.9 |
| 20260505000054 | 71 | 206 | 0.9 | 2.6 | 0.00 | 0.01 | 0.00 | 51 | 1008.9 |
| 20260504235534 | 72 | 236 | 0.0 | 3.5 | 0.00 | 0.01 | 0.00 | 51 | 1008.8 |
| 20260504235034 | 72 | 236 | 0.9 | 3.5 | 0.00 | 0.01 | 0.00 | 50 | 1008.9 |
| 20260504234533 | 72 | 188 | 0.0 | 5.2 | 0.00 | 0.01 | 0.00 | 51 | 1008.9 |
| 20260504234032 | 72 | 43 | 0.9 | 7.0 | 0.00 | 0.01 | 0.00 | 50 | 1009.0 |
| 20260504233534 | 72 | 179 | 2.6 | 7.0 | 0.00 | 0.01 | 0.00 | 49 | 1008.9 |
| 20260504233032 | 72 | 146 | 0.9 | 7.0 | 0.00 | 0.01 | 0.00 | 50 | 1009.0 |
| 20260504232532 | 72 | 155 | 0.0 | 7.0 | 0.00 | 0.01 | 0.00 | 50 | 1009.1 |
| 20260504232031 | 72 | 194 | 0.9 | 3.5 | 0.00 | 0.01 | 0.00 | 50 | 1009.1 |
| 20260504231532 | 72 | 201 | 0.9 | 3.5 | 0.00 | 0.01 | 0.00 | 50 | 1009.1 |
| 20260504231031 | 73 | 138 | 0.9 | 4.3 | 0.00 | 0.01 | 0.00 | 49 | 1009.1 |
| 20260504230531 | 73 | 188 | 1.7 | 4.3 | 0.00 | 0.01 | 0.00 | 50 | 1009.2 |
| 20260504230030 | 73 | 232 | 1.7 | 4.3 | 0.00 | 0.01 | 0.00 | 49 | 1009.2 |
| 20260504225529 | 73 | 102 | 1.7 | 4.3 | 0.00 | 0.01 | 0.00 | 51 | 1009.0 |
| 20260504225029 | 73 | 132 | 0.0 | 3.5 | 0.00 | 0.01 | 0.00 | 52 | 1009.1 |
| 20260504224528 | 73 | 201 | 0.9 | 6.1 | 0.00 | 0.01 | 0.00 | 50 | 1009.4 |
| 20260504224028 | 73 | 131 | 1.7 | 6.1 | 0.00 | 0.01 | 0.00 | 51 | 1009.5 |
| 20260504223528 | 73 | 295 | 0.0 | 3.5 | 0.00 | 0.01 | 0.00 | 52 | 1009.6 |
| 20260504223028 | 73 | 194 | 0.9 | 1.7 | 0.00 | 0.01 | 0.00 | 53 | 1009.4 |
| 20260504222528 | 74 | 109 | 0.9 | 5.2 | 0.00 | 0.01 | 0.00 | 51 | 1009.4 |
| 20260504222027 | 74 | 119 | 0.9 | 5.2 | 0.00 | 0.01 | 0.00 | 51 | 1009.6 |
| 20260504221527 | 74 | 110 | 1.7 | 4.3 | 0.00 | 0.01 | 0.00 | 52 | 1009.7 |
| 20260504221027 | 74 | 211 | 1.7 | 6.1 | 0.00 | 0.01 | 0.00 | 51 | 1009.7 |
| 20260504220527 | 74 | 161 | 0.9 | 6.1 | 0.00 | 0.01 | 0.00 | 52 | 1009.7 |
| 20260504220026 | 74 | 158 | 0.9 | 6.1 | 0.00 | 0.01 | 0.00 | 53 | 1009.7 |
| 20260504215525 | 74 | 189 | 0.9 | 3.5 | 0.00 | 0.01 | 0.00 | 52 | 1009.6 |
| 20260504215023 | 74 | 147 | 1.7 | 4.3 | 0.00 | 0.01 | 0.00 | 52 | 1009.7 |
| 20260504214523 | 74 | 157 | 0.9 | 7.0 | 0.00 | 0.01 | 0.00 | 53 | 1009.6 |
| 20260504214020 | 73 | 115 | 2.6 | 7.0 | 0.00 | 0.01 | 0.00 | 52 | 1009.4 |
| 20260504213520 | 73 | 176 | 0.9 | 6.1 | 0.00 | 0.01 | 0.00 | 52 | 1009.3 |
| 20260504213020 | 73 | 190 | 1.7 | 6.1 | 0.00 | 0.01 | 0.00 | 52 | 1009.4 |
| 20260504212521 | 73 | 155 | 1.7 | 5.2 | 0.00 | 0.01 | 0.00 | 53 | 1009.6 |
| 20260504212018 | 73 | 184 | 2.6 | 6.1 | 0.00 | 0.01 | 0.00 | 53 | 1009.6 |
| 20260504211519 | 73 | 145 | 0.9 | 5.2 | 0.00 | 0.01 | 0.00 | 54 | 1009.7 |
| 20260504211018 | 73 | 209 | 0.0 | 3.5 | 0.00 | 0.01 | 0.00 | 54 | 1009.8 |
| 20260504210518 | 73 | 104 | 1.7 | 3.5 | 0.00 | 0.01 | 0.00 | 53 | 1009.8 |
| 20260504210023 | 73 | 221 | 0.0 | 4.3 | 0.00 | 0.01 | 0.00 | 58 | 1009.6 |
| 20260504205518 | 73 | 221 | 1.7 | 4.3 | 0.00 | 0.01 | 0.00 | 55 | 1009.7 |
| 20260504205016 | 73 | 225 | 0.9 | 2.6 | 0.00 | 0.01 | 0.00 | 55 | 1009.8 |
| 20260504204616 | 73 | 225 | 0.9 | 3.5 | 0.00 | 0.01 | 0.00 | 55 | 1009.8 |
| 20260504204015 | 73 | 223 | 1.7 | 3.5 | 0.00 | 0.01 | 0.00 | 53 | 1010.0 |
| 20260504203518 | 74 | 242 | 1.7 | 7.0 | 0.00 | 0.01 | 0.00 | 52 | 1010.0 |
| 20260504203013 | 74 | 271 | 1.7 | 7.0 | 0.00 | 0.01 | 0.00 | 52 | 1010.1 |
| 20260504202516 | 74 | 164 | 1.7 | 8.7 | 0.00 | 0.01 | 0.00 | 55 | 1010.3 |
| 20260504202012 | 74 | 188 | 1.7 | 8.7 | 0.00 | 0.01 | 0.00 | 53 | 1010.4 |
| 20260504201508 | 74 | 196 | 2.6 | 7.0 | 0.00 | 0.01 | 0.00 | 53 | 1010.6 |
| 20260504201007 | 73 | 191 | 0.9 | 6.1 | 0.00 | 0.01 | 0.00 | 54 | 1010.6 |
| 20260504200505 | 73 | 189 | 1.7 | 6.1 | 0.00 | 0.01 | 0.00 | 55 | 1010.6 |
| 20260504200007 | 72 | 158 | 1.7 | 6.1 | 0.00 | 0.01 | 0.00 | 56 | 1010.6 |
| 20260504195502 | 72 | 132 | 2.6 | 6.1 | 0.00 | 0.01 | 0.00 | 55 | 1010.7 |
| 20260504195002 | 72 | 241 | 1.7 | 9.6 | 0.00 | 0.01 | 0.00 | 55 | 1010.7 |
| 20260504194501 | 71 | 242 | 1.7 | 6.1 | 0.00 | 0.01 | 0.00 | 55 | 1010.8 |
| 20260504194100 | 71 | 97 | 2.6 | 6.1 | 0.00 | 0.01 | 0.00 | 54 | 1011.1 |
| 20260504193559 | 71 | 275 | 1.7 | 4.3 | 0.00 | 0.01 | 0.00 | 57 | 1011.0 |
| 20260504193059 | 71 | 137 | 1.7 | 6.1 | 0.00 | 0.01 | 0.00 | 56 | 1011.1 |
| 20260504192559 | 71 | 184 | 1.7 | 6.1 | 0.00 | 0.01 | 0.00 | 57 | 1011.2 |
| 20260504192057 | 71 | 332 | 1.7 | 4.3 | 0.00 | 0.01 | 0.00 | 55 | 1011.1 |
| 20260504191607 | 70 | 230 | 0.9 | 4.3 | 0.00 | 0.01 | 0.00 | 56 | 1011.2 |
| 20260504191055 | 70 | 276 | 0.0 | 3.5 | 0.00 | 0.01 | 0.00 | 57 | 1011.1 |
| 20260504190555 | 70 | 277 | 1.7 | 3.5 | 0.00 | 0.01 | 0.00 | 55 | 1011.2 |
| 20260504190116 | 70 | 157 | 0.9 | 3.5 | 0.00 | 0.01 | 0.00 | 56 | 1011.1 |
| 20260504185553 | 70 | 261 | 0.9 | 4.3 | 0.00 | 0.01 | 0.00 | 57 | 1011.1 |
| 20260504185051 | 69 | 183 | 0.9 | 5.2 | 0.00 | 0.01 | 0.00 | 57 | 1011.3 |
| 20260504184550 | 69 | 237 | 1.7 | 5.2 | 0.00 | 0.01 | 0.00 | 57 | 1011.1 |
| 20260504184049 | 69 | 239 | 0.9 | 5.2 | 0.00 | 0.01 | 0.00 | 57 | 1011.1 |
| 20260504183548 | 69 | 217 | 0.9 | 5.2 | 0.00 | 0.01 | 0.00 | 59 | 1011.0 |
| 20260504183047 | 68 | 280 | 1.7 | 5.2 | 0.00 | 0.01 | 0.00 | 58 | 1011.1 |
| 20260504182545 | 68 | 194 | 2.6 | 6.1 | 0.00 | 0.01 | 0.00 | 61 | 1011.3 |
| 20260504182043 | 67 | 248 | 0.9 | 6.1 | 0.00 | 0.01 | 0.00 | 64 | 1011.4 |
| 20260504181545 | 66 | 228 | 1.7 | 6.1 | 0.00 | 0.01 | 0.00 | 65 | 1011.4 |
| 20260504181043 | 66 | 176 | 1.7 | 5.2 | 0.00 | 0.01 | 0.00 | 64 | 1011.5 |
| 20260504180542 | 65 | 221 | 0.9 | 5.2 | 0.00 | 0.01 | 0.00 | 69 | 1011.7 |
| 20260504180042 | 64 | 224 | 1.7 | 5.2 | 0.00 | 0.01 | 0.00 | 68 | 1011.8 |
| 20260504175541 | 63 | 186 | 1.7 | 3.5 | 0.00 | 0.01 | 0.00 | 70 | 1011.5 |
| 20260504175040 | 62 | 327 | 0.9 | 3.5 | 0.00 | 0.01 | 0.00 | 71 | 1011.8 |
| 20260504174540 | 62 | 179 | 0.9 | 3.5 | 0.00 | 0.01 | 0.00 | 71 | 1011.6 |
| 20260504174039 | 62 | 163 | 0.9 | 3.5 | 0.00 | 0.01 | 0.00 | 70 | 1011.5 |
| 20260504173540 | 63 | 344 | 0.9 | 3.5 | 0.00 | 0.01 | 0.00 | 69 | 1011.3 |
| 20260504173039 | 63 | 154 | 0.9 | 5.2 | 0.00 | 0.01 | 0.00 | 69 | 1012.0 |
| 20260504172538 | 64 | 120 | 1.7 | 5.2 | 0.00 | 0.01 | 0.00 | 67 | 1012.4 |
| 20260504172039 | 64 | 158 | 0.9 | 7.0 | 0.00 | 0.01 | 0.00 | 66 | 1012.0 |
| 20260504171537 | 65 | 182 | 0.0 | 7.0 | 0.00 | 0.01 | 0.00 | 63 | 1012.2 |
| 20260504171038 | 65 | 222 | 0.9 | 6.1 | 0.00 | 0.01 | 0.00 | 61 | 1012.3 |
| 20260504170537 | 67 | 238 | 1.7 | 6.1 | 0.00 | 0.01 | 0.00 | 60 | 1012.3 |
| 20260504151019 | 61 | 129 | 1.7 | 5.2 | 0.00 | 0.01 | 0.00 | 69 | 1012.5 |
| 20260504150516 | 60 | 212 | 1.7 | 7.8 | 0.00 | 0.01 | 0.00 | 69 | 1012.4 |
| 20260504141002 | 56 | 122 | 1.7 | 4.3 | 0.00 | 0.01 | 0.00 | 73 | 1013.6 |
| 20260504140601 | 55 | 175 | 0.9 | 4.3 | 0.00 | 0.01 | 0.00 | 74 | 1013.6 |
| 20260504140107 | 55 | 174 | 1.7 | 4.3 | 0.00 | 0.01 | 0.00 | 74 | 1013.4 |
| 20260504130550 | 53 | 101 | 1.7 | 7.0 | 0.00 | 0.01 | 0.00 | 75 | 1014.5 |
| 20260504110530 | 50 | 245 | 0.9 | 3.5 | 0.00 | 0.01 | 0.00 | 72 | 1013.8 |
| 20260504100523 | 48 | 219 | 0.9 | 1.7 | 0.00 | 0.01 | 0.00 | 77 | 1013.9 |
| 20260504081515 | 46 | 217 | 0.9 | 1.7 | 0.00 | 0.01 | 0.00 | 76 | 1014.9 |
| 20260504081010 | 46 | 217 | 0.9 | 1.7 | 0.00 | 0.01 | 0.00 | 76 | 1014.9 |
| 20260504080511 | 47 | 217 | 0.9 | 1.7 | 0.00 | 0.01 | 0.00 | 76 | 1015.0 |
| 20260504050546 | 46 | 145 | 0.0 | 0.0 | 0.00 | 0.01 | 0.00 | 65 | 1016.6 |
| 20260504045544 | 46 | 145 | 0.0 | 0.0 | 0.00 | 0.01 | 0.00 | 64 | 1016.7 |
| 20260504045044 | 46 | 145 | 0.0 | 0.0 | 0.00 | 0.01 | 0.00 | 64 | 1016.7 |
| 20260504044543 | 46 | 145 | 0.0 | 0.0 | 0.00 | 0.01 | 0.00 | 64 | 1016.6 |
| 20260504044043 | 46 | 145 | 0.0 | 0.9 | 0.00 | 0.01 | 0.00 | 64 | 1016.7 |
| 20260504043543 | 46 | 145 | 0.0 | 0.9 | 0.00 | 0.01 | 0.00 | 65 | 1016.6 |
| 20260504043049 | 46 | 145 | 0.0 | 0.9 | 0.00 | 0.01 | 0.00 | 65 | 1016.6 |
| 20260504042542 | 47 | 145 | 0.0 | 0.0 | 0.00 | 0.01 | 0.00 | 66 | 1016.6 |
| 20260504042041 | 47 | 145 | 0.0 | 0.0 | 0.00 | 0.01 | 0.00 | 66 | 1016.7 |
| 20260504041540 | 47 | 145 | 0.0 | 0.9 | 0.00 | 0.01 | 0.00 | 66 | 1016.7 |
| 20260504041039 | 47 | 145 | 0.0 | 0.9 | 0.00 | 0.01 | 0.00 | 66 | 1016.7 |
| 20260504040538 | 47 | 145 | 0.0 | 0.9 | 0.00 | 0.01 | 0.00 | 65 | 1016.8 |
| 20260504040044 | 47 | 145 | 0.0 | 0.9 | 0.00 | 0.01 | 0.00 | 65 | 1016.8 |
| 20260504035537 | 47 | 145 | 0.0 | 0.9 | 0.00 | 0.01 | 0.01 | 66 | 1016.9 |
| 20260504035037 | 47 | 145 | 0.0 | 0.9 | 0.00 | 0.01 | 0.01 | 67 | 1016.9 |
| 20260504034541 | 47 | 145 | 0.0 | 0.9 | 0.00 | 0.01 | 0.01 | 67 | 1017.0 |
| 20260504034038 | 47 | 145 | 0.0 | 0.9 | 0.00 | 0.01 | 0.01 | 68 | 1016.7 |
| 20260504033537 | 47 | 145 | 0.0 | 0.9 | 0.00 | 0.01 | 0.01 | 69 | 1016.8 |
| 20260504033038 | 47 | 145 | 0.0 | 0.9 | 0.00 | 0.01 | 0.01 | 69 | 1016.9 |
| 20260504032536 | 47 | 145 | 0.0 | 0.9 | 0.00 | 0.01 | 0.01 | 70 | 1016.9 |
| 20260504032037 | 47 | 145 | 0.0 | 0.9 | 0.01 | 0.01 | 0.01 | 71 | 1017.1 |
| 20260504031542 | 48 | 145 | 0.0 | 0.9 | 0.01 | 0.01 | 0.01 | 71 | 1017.1 |
| 20260504031036 | 48 | 145 | 0.0 | 0.9 | 0.01 | 0.01 | 0.01 | 72 | 1017.1 |
| 20260504030535 | 48 | 145 | 0.0 | 0.9 | 0.01 | 0.01 | 0.01 | 73 | 1017.1 |
| 20260504030036 | 48 | 145 | 0.0 | 0.9 | 0.01 | 0.01 | 0.01 | 74 | 1017.1 |
| 20260504025535 | 48 | 145 | 0.0 | 0.9 | 0.01 | 0.01 | 0.01 | 75 | 1017.1 |
| 20260504025035 | 49 | 145 | 0.0 | 0.9 | 0.01 | 0.01 | 0.01 | 76 | 1017.3 |
| 20260504024534 | 49 | 145 | 0.0 | 1.7 | 0.01 | 0.01 | 0.01 | 76 | 1017.5 |
| 20260504024034 | 49 | 145 | 0.0 | 1.7 | 0.01 | 0.01 | 0.01 | 76 | 1017.2 |
| 20260504023534 | 50 | 145 | 0.0 | 2.6 | 0.01 | 0.01 | 0.01 | 75 | 1017.1 |
| 20260504023035 | 50 | 145 | 0.9 | 2.6 | 0.01 | 0.01 | 0.01 | 75 | 1017.3 |
| 20260504022535 | 51 | 144 | 0.0 | 1.7 | 0.01 | 0.01 | 0.01 | 72 | 1017.1 |
| 20260504022033 | 51 | 144 | 0.0 | 1.7 | 0.00 | 0.00 | 0.00 | 70 | 1017.1 |
| 20260504021533 | 51 | 144 | 0.0 | 0.9 | 0.00 | 0.00 | 0.00 | 69 | 1017.1 |
| 20260504021034 | 51 | 144 | 0.0 | 0.9 | 0.00 | 0.00 | 0.00 | 67 | 1017.1 |
| 20260504020534 | 51 | 144 | 0.0 | 1.7 | 0.00 | 0.00 | 0.00 | 69 | 1017.1 |
| 20260504020033 | 51 | 144 | 0.0 | 1.7 | 0.00 | 0.00 | 0.00 | 66 | 1017.0 |
| 20260504015533 | 51 | 144 | 0.0 | 1.7 | 0.00 | 0.00 | 0.00 | 66 | 1016.9 |
| 20260504015033 | 51 | 144 | 0.0 | 1.7 | 0.00 | 0.00 | 0.00 | 64 | 1016.9 |
| 20260504014533 | 51 | 144 | 0.0 | 0.9 | 0.00 | 0.00 | 0.00 | 64 | 1017.0 |
| 20260504014033 | 51 | 144 | 0.0 | 0.9 | 0.00 | 0.00 | 0.00 | 63 | 1017.0 |
| 20260504013532 | 52 | 144 | 0.0 | 0.9 | 0.00 | 0.00 | 0.00 | 62 | 1016.9 |
| 20260504013036 | 52 | 144 | 0.0 | 0.9 | 0.00 | 0.00 | 0.00 | 62 | 1016.8 |
| 20260504012633 | 52 | 144 | 0.0 | 0.9 | 0.00 | 0.00 | 0.00 | 63 | 1016.7 |
| 20260504012030 | 52 | 144 | 0.0 | 0.0 | 0.00 | 0.00 | 0.00 | 63 | 1016.5 |
| 20260504011532 | 52 | 144 | 0.0 | 0.9 | 0.00 | 0.00 | 0.00 | 63 | 1016.5 |
| 20260504011030 | 52 | 141 | 0.0 | 0.9 | 0.00 | 0.00 | 0.00 | 60 | 1016.4 |
| 20260504010531 | 53 | 141 | 0.0 | 0.9 | 0.00 | 0.00 | 0.00 | 58 | 1016.4 |